Powrót do katalogu

STARLINK-31735

AktywnyŁącznośćVLEO
NORAD 60054·PAYLOAD·🇺🇸 United States

Wystrzelony Jun 8, 2024 z Vandenberg Space Force Base

Loading…

Następne Przeloty (najbliższe 24 godziny)

TLE

ŚwieżeSource: CelesTrak SupGP

Epoka: Sep 14, 2026, 22:43 UTC

1 60054C 24112S   26257.94701389  .00047591  00000+0  14063-2 0  2576
2 60054  53.1578 277.7109 0001157  86.0730 133.2738 15.34362705    11

Śledź STARLINK-31735 w czasie rzeczywistym z AllMySat

Download on the App Store